This is the latest recevied weather packets stored in our database for station/object N8TWM-13. If no packets are shown the sender has not sent any weather packets the latest 10 day(s).
| Time | Temp. | Humidity | Pressure | Rain* | Wind** | Luminosity | Snow |
|---|---|---|---|---|---|---|---|
| 1777745628 | 3.89° C | 85% | 1017.7 hPa | 0 mm | - | 159 W/m² | - |
| 1777745326 | 3.89° C | 85% | 1017.9 hPa | 0 mm | - | 127 W/m² | - |
| 1777745022 | 3.89° C | 85% | 1017.6 hPa | 0 mm | - | 124 W/m² | - |
| 1777744718 | 3.89° C | 85% | 1017.8 hPa | 0 mm | - | 137 W/m² | - |
| 1777744412 | 3.89° C | 84% | 1017.7 hPa | 0 mm | - | 148 W/m² | - |
| 1777744110 | 4.44° C | 84% | 1017.7 hPa | 0 mm | - | 117 W/m² | - |
| 1777743807 | 4.44° C | 84% | 1017.6 hPa | 0 mm | - | 112 W/m² | - |
| 1777743503 | 4.44° C | 84% | 1017.8 hPa | 0 mm | - | 184 W/m² | - |
| 1777743200 | 4.44° C | 86% | 1017.7 hPa | 0 mm | - | 243 W/m² | - |
| 1777742899 | 3.89° C | 87% | 1017.6 hPa | 0 mm | - | 271 W/m² | - |
| 1777742595 | 3.33° C | 86% | 1017.7 hPa | 0 mm | - | 260 W/m² | - |
| 1777742291 | 3.89° C | 85% | 1017.7 hPa | 0 mm | - | 113 W/m² | - |
| 1777741988 | 4.44° C | 85% | 1017.6 hPa | 0 mm | - | 97 W/m² | - |
| 1777741685 | 3.89° C | 85% | 1017.7 hPa | 0 mm | - | 302 W/m² | - |
| 1777741381 | 3.89° C | 85% | 1017.5 hPa | 0 mm | - | 194 W/m² | - |
| 1777741077 | 3.89° C | 85% | 1017.6 hPa | 0 mm | - | 130 W/m² | - |
| 1777740774 | 3.89° C | 85% | 1017.7 hPa | 0 mm | - | 159 W/m² | - |
| 1777740471 | 3.89° C | 85% | 1017.7 hPa | 0 mm | - | 108 W/m² | - |
| 1777740169 | 3.89° C | 85% | 1017.7 hPa | 0 mm | - | 105 W/m² | - |
| 1777739864 | 3.89° C | 86% | 1017.8 hPa | 0 mm | - | 186 W/m² | - |
| 1777739561 | 3.89° C | 86% | 1017.5 hPa | 0 mm | - | 206 W/m² | - |
| 1777739258 | 3.89° C | 86% | 1017.9 hPa | 0 mm | - | 237 W/m² | - |
| 1777738955 | 3.33° C | 86% | 1017.7 hPa | 0 mm | - | 209 W/m² | - |
| 1777738652 | 3.89° C | 84% | 1017.8 hPa | 0 mm | - | 135 W/m² | - |
| 1777738348 | 3.89° C | 83% | 1017.6 hPa | 0 mm | - | 106 W/m² | - |
* Rain latest hour (hover to see other rain measurements)
** Current wind speed in m/s (hover to see current wind gust speed)